Find Starlink 30043

NORAD ID: 57417 Int'l Des: 2023-102 Owner: SPXS Country: US Constellation: starlink operational
LEOCIRCULAR

リアルタイム位置

3D地球を読み込み中...

Starlink 30043について

説明を読み込み中...

次回通過

Passes for default location (London). Set your location on the main map for personalized predictions.

高度履歴

Loading altitude history...

軌道要素

1 57417U 23102P 26124.16594950 .00053577 00000-0 19590-2 0 9999
2 57417 43.0038 295.3244 0001437 262.9238 97.1450 15.27299790154726
Epoch: May 4, 2026 • Age: 7 hours

現在のステータス

高度 485.6 km
速度 7.63 km/s
衛星直下点 32.42°N, 43.18°W
打ち上げ日 Jul 19, 2023
運用期間 2.7 years
タイプ internet

技術仕様

分類 Payload
質量 730.00 kg
乾燥質量 700.00 kg
総質量 730.00 kg
長さ 0.30 m
直径 4.10 m
スパン 29.00 m
形状 Box + pan
製造者 SPXS
バスタイプ Starlink V2M
フェーズステータス In Orbit
所有者/国 SPXS/US

Most Searched